Location: Newark
(49.8167°N, 23.9500°E)
Time: 19:43:47
(UTC+00:00)

N. Korean satellite - Visible Passes

Search period start: 10 December 2019 00:00
Search period end: 20 December 2019 00:00
Orbit: 456 x 506 km, 97.2° (Epoch: 09 December)

Date Brightness Start Highest point End Pass type
(mag) Time Alt. Az. Time Alt. Az. Time Alt. Az.
10 Dec 9.4 03:27:52 10° NE 03:30:23 18° E 03:32:52 10° SE visible
10 Dec 7.0 05:00:38 10° N 05:03:57 36° WNW 05:07:11 10° SW visible
10 Dec 7.6 15:39:42 10° S 15:43:20 51° W 15:46:57 10° NNW visible
11 Dec 6.4 04:35:01 10° N 04:38:35 73° WNW 04:42:03 10° SSW visible
11 Dec 6.6 15:14:10 10° SSE 15:17:52 80° ENE 15:21:34 10° N visible
12 Dec 7.3 04:09:38 10° NNE 04:13:08 54° E 04:16:32 10° S visible
12 Dec 9.7 16:23:28 10° SW 16:26:04 18° W 16:28:40 10° NW visible
13 Dec 8.7 03:44:30 10° NE 03:47:34 27° E 03:50:35 10° SSE visible
13 Dec 7.6 05:17:59 10° NNW 05:20:54 24° WNW 05:23:45 10° WSW visible
13 Dec 8.6 15:57:06 10° SSW 16:00:28 33° W 16:03:50 10° NNW visible
14 Dec 9.7 03:19:52 10° NE 03:21:55 15° E 03:23:58 10° SE visible
14 Dec 6.7 04:52:12 10° N 04:55:36 45° WNW 04:58:54 10° SW visible
14 Dec 7.1 15:31:17 10° S 15:34:57 64° W 15:38:36 10° NNW visible
15 Dec 6.4 04:26:39 10° NNE 04:30:12 89° ESE 04:33:40 10° SSW visible
15 Dec 6.6 15:05:52 10° SSE 15:09:31 64° ENE 15:13:09 10° N visible
15 Dec 10.1 16:41:52 10° WSW 16:43:18 12° W 16:44:44 10° WNW visible
16 Dec 7.7 04:01:20 10° NNE 04:04:42 42° E 04:08:00 10° S visible
16 Dec 8.1 05:35:31 10° NNW 05:37:48 16° WNW 05:40:03 10° WSW visible
16 Dec 9.4 16:14:45 10° SW 16:17:38 21° W 16:20:30 10° NW visible
17 Dec 9.1 03:36:19 10° NE 03:39:06 22° E 03:41:52 10° SSE visible
17 Dec 7.3 05:09:28 10° N 05:12:33 29° WNW 05:15:34 10° SW visible
17 Dec 8.1 15:48:35 10° S 15:52:04 40° W 15:55:31 10° NNW visible
18 Dec 10.0 03:12:03 10° ENE 03:13:26 12° E 03:14:48 10° ESE visible
18 Dec 6.5 04:43:46 10° N 04:47:12 56° WNW 04:50:35 10° SSW visible
18 Dec 6.7 15:22:53 10° S 15:26:34 80° WSW 15:30:12 10° NNW visible
19 Dec 6.7 04:18:16 10° NNE 04:21:46 70° ESE 04:25:12 10° S visible
19 Dec 6.8 14:57:35 10° SSE 15:01:09 51° ENE 15:04:41 10° N visible
19 Dec 9.9 16:32:47 10° SW 16:34:50 14° W 16:36:52 10° NW visible
